Regional Weather Roundup
Issued by NWS

Home | Current Version | Previous Version | Text Only | Print | Product List | Glossary Off
Versions: 1 2 3 4 5 6 7 8 9 10 11 12 13 14 15 16 17 18 19 20 21 22 23 24 25 26 27 28 29 30 31 32 33 34 35 36 37 38 39 40 41 42 43 44 45 46 47 48 49 50

000
ASUS43 KLOT 281803
RWRIL

ILLINOIS REGIONAL WEATHER ROUNDUP
NATIONAL WEATHER SERVICE CHICAGO/ROMEOVILLE IL
100 PM CDT THU JUL 28 2016

NOTE: "FAIR" INDICATES FEW OR NO CLOUDS BELOW 12,000 FEET WITH NO
SIGNIFICANT WEATHER AND/OR OBSTRUCTIONS TO VISIBILITY.

* THESE STATIONS ARE NOT UNDER NWS QUALITY CONTROL. THEY ALSO MAY NOT
  REPORT WEATHER SUCH AS PRECIPITATION OR FOG.

ILZ001-002-007-009-015-016-024-281900-
NORTHWEST ILLINOIS

CITY           SKY/WX    TMP DP  RH WIND       PRES   REMARKS
MOLINE         PTSUNNY   85  69  58 W14       29.89S HX  89
6HR MIN TEMP:  71; 6HR MAX TEMP:  86;

STERLING*      MOSUNNY   84  72  67 W12       29.88F HX  89
SAVANNA*       MOSUNNY   84  69  60 SW8       29.88F HX  88
$$

ILZ003-004-008-010-011-017-018-281900-
NORTH CENTRAL ILLINOIS

CITY           SKY/WX    TMP DP  RH WIND       PRES   REMARKS
ROCKFORD       CLOUDY    74  67  78 E6        29.90S THUNDER
6HR MIN TEMP:  73; 6HR MAX TEMP:  84;

FREEPORT*      LGT RAIN  76  70  82 CALM      29.90S
ROCHELLE*      CLOUDY    82  73  74 S6        29.88F HX  86
DE KALB*       CLOUDY    85  72  64 S10       29.89F HX  90
$$

ILZ005-006-012>014-019>023-281900-
NORTHEAST ILLINOIS

CITY           SKY/WX    TMP DP  RH WIND       PRES   REMARKS
CHICAGO-OHARE  TSTM      74  71  91 S8        29.89S FOG
6HR MIN TEMP:  74; 6HR MAX TEMP:  84; 6HR PCP:  0.32;

CHICAGO-MIDWAY PTSUNNY   82  71  69 NE9       29.87F HX  86
6HR MIN TEMP:  72; 6HR MAX TEMP:  84; 6HR PCP:  0.01;

AURORA         SUNNY     85  71  63 S9        29.88F HX  90
6HR MIN TEMP:  72; 6HR MAX TEMP:  86;

LANSING*       PTSUNNY   84  67  57 S8        29.88F HX  87
WAUKEGAN       MOSUNNY   81  68  64 NE8       29.89F HX  84
6HR MIN TEMP:  71; 6HR MAX TEMP:  82;

DUPAGE AIRPORT CLOUDY    85  69  58 SE8       29.87F HX  89
6HR MIN TEMP:  72; 6HR MAX TEMP:  86;

KANKAKEE*      PTSUNNY   83  69  62 SE6       29.89F HX  86
WHEELING       MOSUNNY   80  69  69 E7        29.89F HX  83
6HR MIN TEMP:  72; 6HR MAX TEMP:  82;

MORRIS*        SUNNY     84  71  65 S6        29.87F HX  89
NORTHERLY ISL    N/A     80  72  76 N5          N/A  HX  84
$$

LMZ740>746-281900-
SOUTHERN LAKE MICHIGAN

STATION/POSITION SKY/WX   TEMP    WIND        PRES    VSBY  WAVE
                          AIR SEA DIR/SP/G                  HT/PER
                          (F)     (DEG/KT/KT) (MB)    (MI)  (FT/S)
SOUTHERN BUOY              75 76  110/  6/  6 1012.2          1/ 4
WILMETTE HARBOR            75 72   90/  4/  4   N/A           1/ 2
HARRISON CRIB              77      60/  5/  5   N/A
BURNHAM HARBOR             79      30/  5/  7   N/A
CALUMET HARBOR             79      40/  7/  8 1011.7F
BURNS HARBOR               77      10/  6/  8 1012.9F
MICHIGAN CITY              80     300/  6/  7   N/A
MICHIGAN CITY 6N           79 79  330/  4/  4   N/A           1
ST. JOSEPH                 77 79  310/  4/  4 1012.2F         0
$$

ILZ025>027-034>036-040-047-049-050-058-095>099-281900-
WEST-CENTRAL ILLINOIS

CITY           SKY/WX    TMP DP  RH WIND       PRES   REMARKS
QUINCY         MOSUNNY   84  71  65 NW9       29.93R HX  89
GALESBURG*     MOSUNNY   84  71  65 W6        29.91S HX  89
MACOMB*        MOSUNNY   83  71  66 NW7       29.94S HX  88
JACKSONVILLE*  PTSUNNY   83  74  74 NW7       29.90S HX  89
PITTSFIELD*    MOSUNNY   84  73  69 W5        29.93S HX  90
$$

ILZ028>032-037-038-041>044-048-051>054-059>061-281900-
CENTRAL ILLINOIS

CITY           SKY/WX    TMP DP  RH WIND       PRES   REMARKS
PONTIAC        SUNNY     84  75  73 SE5       29.90S HX  92
BLOOMINGTON    PTSUNNY   82  73  74 VRB6      29.91S HX  87
DECATUR        CLOUDY    83  74  74 S7        29.89S HX  89
PEORIA         MOSUNNY   84  73  69 NW7       29.88F HX  90
6HR MIN TEMP:  74; 6HR MAX TEMP:  87;

LACON*         MOSUNNY   86  71  60 S6        29.87F HX  91
LINCOLN*       PTSUNNY   84  76  75 CALM      29.89S HX  93
SPRINGFIELD    MOSUNNY   86  75  69 NW7       29.89S HX  95
6HR MIN TEMP:  74; 6HR MAX TEMP:  87; 6HR PCP:  0.01;

TAYLORVILLE    PTSUNNY   79  72  78 MISG      29.89F HX  83
6HR MIN TEMP:  72; 6HR MAX TEMP:  82; 6HR PCP:  0.03;

$$

ILZ033-039-045-046-055>057-062-063-281900-
EAST-CENTRAL ILLINOIS

CITY           SKY/WX    TMP DP  RH WIND       PRES   REMARKS
CHAMPAIGN      SUNNY     80  71  74 SE5       29.90S HX  84
MATTOON        MOSUNNY   82  68  62 VRB6      29.89S HX  85
PARIS*         CLOUDY    80  75  85 CALM      29.90F HX  84
$$

ILZ079-100>102-281900-
SOUTHWEST ILLINOIS

CITY           SKY/WX    TMP DP  RH WIND       PRES   REMARKS
BELLEVILLE     MOSUNNY   88  75  65 W5        29.87F HX  97
CAHOKIA*       MOSUNNY   90  71  53 NW7       29.88S HX  96
SPARTA*        PTSUNNY   85  74  68 CALM      29.90F HX  92
$$

ILZ064>066-069>071-074>076-080>082-084>086-088>090-092>094-281900-
SOUTH-CENTRAL ILLINOIS

CITY           SKY/WX    TMP DP  RH WIND       PRES   REMARKS
CARBONDALE     MOSUNNY   87  74  64 W6        29.90S HX  95
6HR MIN TEMP:  74; 6HR MAX TEMP:  87;

CAIRO*         MOSUNNY   84  77  80 SW5       29.91F HX  93
EFFINGHAM*     CLOUDY    80  74  82 S3        29.91F HX  85
MARION         PTSUNNY   86  75  70 SW6       29.91F HX  95
MT. VERNON     CLOUDY    88  73  62 MISG      29.89S HX  96
CENTRALIA*     PTSUNNY   87  78  73 CALM      29.89S HX  99
SALEM*         MOSUNNY   86  75  69 CALM      29.90R HX  95
METROPOLIS*    PTSUNNY   84  76  75 CALM      29.92F HX  93
$$

ILZ067-068-072-073-078-083-087-091-281900-
SOUTHEAST ILLINOIS

CITY           SKY/WX    TMP DP  RH WIND       PRES   REMARKS
LAWRENCEVILLE  MOSUNNY   83  74  74 S10       29.89F HX  89
FLORA*         PTSUNNY   85  76  74 E3        29.90F HX  93
FAIRFIELD*     PTSUNNY   81  75  80 S3        29.89S HX  87
HARRISBURG*    MOSUNNY   83  77  81 S5        29.91S HX  92
ROBINSON*      MOSUNNY   83  74  75 W6        29.90R HX  90
CARMI*         PTSUNNY   82  76  81 W5        29.90S HX  88
$$

ABBREVIATIONS USED IN REMARKS
   TC - TEMPERATURE IN CELSIUS
  WCI - WIND CHILL INDEX
   HX - HEAT INDEX
  VSB - VISIBILITY
$$





USA.gov is the U.S. government's official web portal to all federal, state and local government web resources and services.